Wind_Speed
32 36 36 38 41 44 45 47 48 49 49 48 50 51 49 44 45 45 45 47 48 48 48 49 49 48 48 48 46 45 44 43 42 41 40 39 38 37 37 38 38 38 38 38
29 32 34 37 39 41 44 45 46 45 46 46 45 47 48 45 42 44 45 45 46 47 48 48 48 49 48 48 48 47 46 45 44 43 42 41 40 40 39 39 40 41 42 42
24 29 32 35 37 37 39 41 43 44 43 43 43 42 44 45 41 42 44 45 45 46 47 46 46 47 47 47 47 48 48 47 46 45 45 44 43 42 42 42 42 42 43 44
21 24 29 32 35 35 36 37 39 41 39 38 40 40 41 42 41 41 42 44 45 45 46 46 46 45 46 46 47 48 48 49 49 48 47 46 46 45 45 45 44 45 45 46
18 22 26 29 32 32 32 34 36 37 36 36 37 38 36 38 41 40 40 41 43 45 45 46 46 46 45 46 46 47 47 48 48 49 49 49 49 49 48 47 48 49 48 49
17 21 24 26 29 29 29 31 33 34 35 35 34 35 34 35 37 37 38 39 41 43 45 45 46 46 46 46 46 46 47 47 47 48 49 49 49 49 49 50 50 50 49 49
16 19 21 23 25 27 27 28 30 31 32 33 33 34 32 33 35 35 35 36 38 40 43 44 44 45 46 47 47 48 48 48 48 48 49 49 49 49 49 50 50 50 50 49
14 16 18 20 23 25 25 26 27 28 29 30 32 33 32 33 32 31 32 33 34 36 38 40 41 43 44 46 47 48 49 50 50 50 50 50 50 50 50 51 52 52 51 51
12 13 16 18 21 24 25 26 26 27 27 27 29 30 31 31 30 29 30 31 32 33 35 36 38 39 40 42 45 48 49 50 50 51 51 52 53 53 52 52 52 52 52 51
10 11 14 17 19 21 24 24 24 25 25 24 25 27 29 29 28 28 28 28 29 31 32 33 35 37 37 38 40 43 46 48 49 51 52 52 53 52 52 52 52 52 51 51
9 10 12 15 17 19 22 23 24 24 24 23 21 23 26 27 27 27 27 28 29 30 31 31 33 34 35 36 38 40 41 43 45 47 48 49 50 51 52 52 52 52 52 52
8 9 11 13 15 18 20 22 23 23 23 23 22 22 23 24 24 25 26 28 29 30 30 30 31 32 32 33 35 36 37 39 40 42 43 45 46 48 49 49 50 51 52 52
9 9 11 13 14 16 17 19 20 22 23 23 22 23 22 22 23 24 26 28 29 29 30 30 30 30 31 31 32 33 34 36 37 38 40 41 43 44 46 47 48 48 49 49
11 11 11 12 13 14 15 16 18 21 22 21 21 22 22 23 24 25 26 27 27 28 29 29 30 30 30 31 32 33 33 34 36 37 38 40 41 42 43 45 46 47 47 47
13 13 13 14 14 14 15 17 18 20 21 22 21 22 22 24 25 25 26 26 27 27 28 29 30 31 31 31 32 33 34 35 35 36 37 38 39 40 41 42 43 44 44 45
15 15 15 16 17 17 17 18 19 20 21 22 22 22 23 25 25 25 26 26 27 28 29 30 30 31 31 32 32 32 33 34 35 36 36 37 38 39 39 40 41 41 42 42
17 17 17 17 18 19 20 19 21 22 23 23 24 24 25 25 25 26 27 28 29 29 29 30 31 31 31 31 32 32 32 33 34 35 35 36 37 38 38 39 39 40 40 40
18 18 19 19 20 21 21 21 21 23 24 24 25 26 26 26 26 27 28 28 29 29 30 30 31 32 32 32 32 32 32 33 33 34 35 36 36 37 37 38 38 38 38 38
18 19 20 20 22 23 22 21 22 23 24 24 25 26 26 26 27 28 28 28 29 29 30 30 30 31 31 31 32 32 33 33 33 34 35 35 36 36 37 37 37 37 37 37
18 19 20 21 22 23 23 22 23 25 26 25 26 27 27 27 28 29 29 30 30 30 30 30 31 31 31 31 32 32 32 33 33 34 34 35 35 35 35 35 35 35 35 34
18 19 20 21 22 24 23 23 24 25 26 26 27 27 28 29 29 29 30 30 30 30 30 30 31 31 31 31 31 31 31 32 32 33 33 33 33 33 33 33 33 32 32 31
17 19 20 21 22 23 23 23 24 25 26 26 27 28 28 29 29 30 30 30 31 31 30 30 30 30 30 30 30 30 30 30 31 31 31 32 32 32 32 31 30 30 29 28
16 18 20 22 23 24 24 24 25 26 26 27 27 28 28 29 29 30 30 30 31 31 31 31 30 30 30 29 29 29 29 29 29 30 30 31 31 30 29 28 28 27 27 27
16 18 20 21 23 25 26 26 27 28 28 28 28 29 29 29 29 30 30 31 31 31 31 30 30 30 30 30 29 29 29 29 29 29 29 29 28 28 27 27 26 26 26 26
14 17 19 21 23 25 26 27 28 28 29 29 30 30 31 31 30 30 30 31 31 31 31 30 30 30 30 30 30 30 30 29 29 28 28 28 28 27 27 27 26 24 24 24
15 16 18 19 22 24 26 28 29 29 30 30 31 31 32 32 32 32 31 31 31 32 32 32 31 31 31 30 30 30 30 30 29 28 28 27 27 26 26 26 25 25 24 24
Wind_Direction
186 189 190 192 196 201 203 206 208 210 213 216 218 220 222 223 226 225 226 227 228 230 232 233 233 234 234 234 236 239 242 244 245 247 250 252 254 256 259 261 262 264 266 268
185 187 189 193 195 200 203 206 209 211 214 217 218 221 224 225 227 227 227 228 229 230 233 234 234 235 236 237 237 239 241 244 246 248 250 252 254 256 258 262 264 265 267 268
185 186 190 192 193 197 203 206 210 212 214 220 220 222 224 226 227 227 228 229 230 231 233 235 236 236 238 239 239 240 241 243 245 248 250 252 254 257 260 263 266 267 268 269
180 187 190 191 194 198 202 205 209 212 215 220 223 226 226 228 230 230 232 232 232 232 234 236 237 238 239 241 242 243 243 244 246 248 250 253 255 257 259 262 265 267 269 269
174 181 186 189 193 195 199 204 208 212 216 222 223 226 225 230 232 233 234 235 235 236 236 238 239 240 241 242 243 245 246 247 249 250 251 253 256 258 260 263 265 267 268 270
170 176 181 186 191 193 197 203 209 214 219 224 225 227 227 231 233 234 236 237 238 238 239 240 241 242 242 244 245 247 248 249 250 252 253 255 257 259 261 264 266 267 268 269
165 170 178 185 191 194 198 204 208 212 219 224 225 228 228 232 235 236 237 239 240 240 243 243 244 244 244 245 246 248 250 251 252 253 255 256 258 259 261 263 266 267 268 269
165 171 177 184 190 194 197 202 208 215 221 223 226 229 229 232 235 237 239 240 241 243 244 246 247 247 247 247 247 248 250 252 253 255 256 256 258 260 262 264 265 267 268 268
173 176 180 187 193 197 199 203 209 215 220 223 227 229 230 232 234 238 241 243 244 245 246 248 250 250 250 249 249 250 251 252 253 255 257 258 259 261 262 263 265 266 267 268
179 181 188 191 194 198 202 205 208 213 219 226 231 233 234 234 238 240 242 244 245 247 248 249 251 252 252 252 252 252 252 253 254 256 257 258 259 261 262 263 264 264 266 267
185 193 196 199 201 202 205 209 213 216 220 223 230 236 237 238 240 242 243 244 245 247 249 250 252 253 253 253 254 254 254 255 256 257 258 259 260 261 262 263 264 265 266 267
205 206 205 204 207 211 213 216 219 221 223 225 230 234 238 242 245 245 244 244 245 247 248 250 252 253 254 254 255 256 257 257 258 258 259 260 261 262 264 265 265 265 266 267
222 221 220 219 219 217 218 220 223 224 227 229 233 238 241 245 247 247 247 247 248 249 250 252 254 255 255 255 256 257 258 259 259 260 261 262 262 263 264 265 265 266 267 268
234 236 233 231 230 228 226 227 227 229 232 235 237 242 245 247 249 249 250 250 250 251 252 252 254 256 257 257 258 258 259 259 260 260 262 263 264 264 265 266 267 268 269 269
242 243 242 242 239 237 233 234 235 237 239 241 241 242 245 248 251 253 253 252 252 252 252 253 254 256 258 259 260 260 260 260 261 262 263 264 265 267 268 268 269 269 270 271
244 247 247 246 246 244 242 241 241 243 244 246 245 245 247 251 253 254 254 253 253 254 254 255 256 258 259 260 261 261 261 261 261 262 264 265 265 266 268 269 269 270 271 271
248 250 250 250 250 249 249 249 250 250 249 250 250 250 252 254 255 254 254 255 255 256 257 256 257 258 259 261 262 263 262 262 262 263 264 265 266 267 268 269 270 270 271 272
250 253 254 253 253 254 256 254 254 254 254 254 254 254 255 256 256 257 257 258 258 258 259 259 259 259 260 261 262 263 263 262 263 264 264 265 267 268 269 270 271 271 272 272
254 255 257 258 258 259 258 257 257 256 256 257 257 257 258 258 258 258 259 259 260 260 260 260 259 259 260 261 263 263 263 263 263 264 264 265 267 269 270 271 272 272 272 272
259 258 259 260 260 261 261 261 260 260 260 260 260 259 259 259 259 259 260 260 260 260 260 260 260 261 261 262 263 263 263 263 264 264 265 267 268 270 271 272 272 272 272 272
262 261 261 262 263 264 265 264 263 263 264 263 261 260 260 259 260 259 260 260 261 261 261 261 261 261 261 262 263 263 263 264 264 265 266 267 267 269 270 271 272 271 271 270
269 265 263 263 265 267 267 267 266 266 266 265 264 262 261 261 261 260 259 259 260 262 262 262 261 261 261 262 262 262 263 264 264 265 265 266 267 269 270 271 271 270 270 270
278 272 267 265 266 267 268 269 268 268 268 267 266 264 262 261 261 260 260 259 260 261 260 261 261 260 260 260 261 262 262 263 264 265 266 266 267 267 268 269 269 268 269 270
286 280 274 269 267 268 269 270 270 270 269 268 267 265 264 263 262 262 262 261 261 260 260 261 260 259 259 259 260 261 261 263 264 265 265 265 264 264 266 266 267 268 268 269
295 286 281 277 273 272 272 273 272 271 271 270 270 269 267 265 264 264 263 263 262 260 260 260 259 258 258 259 259 260 261 262 263 264 265 263 263 262 264 264 266 267 267 268
309 299 292 288 284 280 277 275 275 274 273 271 271 270 270 268 266 264 263 263 262 261 259 258 259 258 258 258 258 259 260 261 260 262 263 262 261 261 263 264 265 265 266 267
Height
5602 5611 5618 5628 5637 5647 5656 5664 5672 5680 5688 5696 5703 5709 5715 5721 5727 5734 5741 5747 5754 5760 5766 5772 5778 5783 5789 5794 5799 5803 5807 5811 5814 5817 5820 5823 5825 5828 5830 5832 5833 5835 5836 5837
5605 5611 5619 5626 5634 5642 5651 5659 5668 5676 5683 5690 5697 5703 5710 5716 5722 5729 5735 5741 5748 5753 5758 5764 5770 5776 5781 5786 5791 5795 5799 5803 5807 5810 5813 5816 5818 5820 5822 5824 5825 5827 5828 5829
5607 5613 5619 5626 5634 5641 5649 5657 5665 5672 5680 5686 5692 5699 5705 5711 5717 5723 5729 5735 5741 5746 5751 5757 5763 5769 5774 5779 5783 5788 5791 5795 5799 5802 5805 5808 5810 5812 5815 5816 5817 5818 5819 5820
5609 5614 5620 5626 5634 5642 5649 5656 5663 5670 5677 5682 5689 5695 5701 5706 5712 5718 5724 5730 5735 5740 5745 5750 5756 5762 5767 5772 5776 5780 5783 5787 5790 5793 5797 5799 5802 5804 5806 5807 5808 5809 5810 5811
5612 5616 5622 5628 5635 5641 5648 5655 5662 5669 5674 5679 5685 5691 5698 5702 5707 5714 5719 5724 5729 5734 5738 5743 5749 5754 5759 5763 5767 5771 5775 5778 5782 5785 5788 5790 5793 5795 5797 5798 5799 5800 5801 5801
5615 5619 5624 5629 5635 5641 5648 5654 5660 5665 5670 5677 5682 5688 5695 5697 5703 5709 5714 5718 5723 5727 5731 5736 5741 5746 5751 5755 5759 5762 5766 5769 5773 5775 5778 5780 5783 5785 5787 5788 5789 5790 5791 5792
5618 5622 5626 5631 5636 5642 5647 5653 5658 5663 5667 5674 5680 5684 5691 5693 5699 5704 5708 5712 5716 5720 5724 5729 5734 5738 5742 5747 5750 5753 5756 5760 5763 5766 5768 5771 5773 5775 5776 5778 5779 5780 5781 5782
5621 5625 5628 5632 5637 5642 5646 5652 5658 5663 5667 5672 5676 5680 5687 5689 5694 5698 5702 5706 5710 5714 5718 5722 5726 5730 5734 5738 5741 5744 5747 5750 5753 5756 5758 5761 5762 5764 5766 5767 5768 5769 5770 5771
5624 5627 5630 5633 5637 5642 5645 5650 5655 5661 5664 5668 5672 5677 5681 5685 5690 5694 5697 5701 5704 5708 5711 5715 5718 5722 5725 5728 5731 5733 5737 5740 5743 5745 5747 5749 5751 5753 5754 5755 5756 5757 5758 5759
5626 5628 5631 5634 5638 5641 5646 5649 5654 5658 5662 5666 5669 5673 5677 5681 5685 5689 5692 5695 5698 5701 5704 5707 5710 5713 5716 5719 5721 5723 5726 5729 5732 5734 5736 5738 5740 5741 5743 5744 5745 5746 5746 5747
5628 5630 5632 5635 5637 5641 5645 5649 5652 5656 5659 5663 5666 5671 5672 5676 5680 5683 5686 5689 5692 5695 5698 5700 5703 5705 5708 5710 5712 5714 5717 5719 5721 5723 5725 5727 5728 5729 5731 5732 5733 5734 5735 5735
5629 5632 5633 5635 5638 5640 5643 5646 5650 5653 5656 5660 5663 5669 5668 5672 5675 5677 5680 5683 5686 5688 5691 5693 5695 5697 5699 5702 5703 5706 5708 5710 5711 5713 5714 5716 5717 5718 5719 5720 5721 5722 5722 5723
5630 5632 5633 5635 5639 5640 5642 5644 5647 5650 5653 5656 5659 5665 5664 5667 5669 5672 5674 5676 5679 5681 5684 5686 5688 5690 5691 5693 5695 5697 5699 5700 5702 5703 5704 5705 5706 5707 5708 5709 5709 5710 5710 5711
5629 5631 5633 5635 5636 5638 5640 5642 5644 5647 5649 5653 5656 5658 5660 5662 5663 5665 5668 5670 5672 5674 5677 5679 5680 5682 5684 5685 5687 5688 5689 5691 5692 5693 5694 5695 5696 5696 5697 5698 5698 5698 5699 5699
5627 5629 5630 5632 5634 5635 5637 5639 5641 5644 5646 5649 5651 5653 5655 5656 5658 5660 5662 5664 5665 5667 5669 5671 5672 5674 5675 5677 5678 5679 5680 5681 5682 5683 5684 5685 5685 5686 5686 5687 5687 5687 5687 5687
5625 5627 5628 5629 5631 5632 5634 5636 5638 5640 5642 5644 5646 5648 5649 5650 5652 5654 5655 5657 5658 5660 5661 5663 5664 5665 5667 5668 5669 5670 5671 5671 5672 5673 5674 5675 5675 5676 5676 5676 5676 5676 5676 5676
5622 5624 5625 5626 5627 5629 5631 5633 5634 5635 5637 5638 5640 5643 5643 5645 5646 5647 5648 5649 5651 5652 5653 5654 5655 5656 5658 5659 5660 5661 5661 5662 5663 5664 5664 5665 5665 5666 5666 5666 5666 5665 5665 5665
5618 5619 5621 5622 5624 5625 5629 5628 5629 5630 5631 5632 5634 5635 5636 5638 5638 5639 5640 5642 5643 5644 5645 5646 5647 5648 5649 5650 5651 5651 5652 5652 5653 5654 5654 5655 5655 5655 5655 5655 5655 5655 5655 5655
5614 5615 5616 5617 5618 5619 5622 5623 5623 5624 5625 5626 5627 5628 5629 5630 5631 5632 5633 5634 5634 5635 5636 5637 5638 5639 5640 5641 5641 5642 5642 5643 5643 5644 5645 5645 5645 5645 5645 5645 5645 5645 5645 5644
5610 5611 5612 5612 5613 5614 5616 5617 5616 5618 5618 5619 5620 5620 5621 5622 5623 5625 5625 5625 5626 5626 5627 5628 5629 5630 5631 5631 5632 5632 5633 5633 5634 5634 5635 5635 5636 5636 5636 5635 5635 5635 5635 5634
5605 5606 5607 5607 5607 5608 5610 5610 5610 5612 5613 5612 5612 5613 5613 5614 5615 5616 5616 5616 5617 5618 5618 5619 5620 5620 5621 5622 5622 5623 5623 5624 5624 5625 5625 5626 5626 5626 5626 5626 5626 5625 5625 5625
5601 5601 5602 5602 5602 5605 5603 5603 5604 5604 5604 5604 5604 5604 5605 5605 5606 5606 5607 5608 5608 5609 5609 5610 5610 5611 5612 5612 5613 5614 5614 5615 5615 5615 5616 5616 5616 5617 5617 5617 5617 5617 5617 5617
5596 5597 5596 5597 5599 5597 5597 5597 5597 5596 5596 5596 5596 5596 5596 5597 5597 5598 5598 5599 5599 5600 5600 5601 5601 5602 5603 5603 5604 5605 5605 5606 5606 5606 5607 5607 5607 5608 5608 5608 5608 5609 5609 5609
5591 5591 5591 5591 5591 5591 5590 5590 5590 5589 5589 5589 5588 5588 5588 5588 5589 5589 5589 5589 5590 5590 5591 5591 5592 5593 5594 5594 5595 5596 5597 5597 5597 5598 5598 5598 5599 5599 5600 5600 5601 5601 5601 5601
5587 5586 5585 5585 5585 5584 5584 5583 5583 5582 5581 5581 5580 5580 5579 5579 5580 5580 5580 5580 5580 5581 5581 5582 5583 5583 5584 5585 5586 5587 5587 5588 5589 5589 5590 5590 5591 5591 5592 5592 5593 5593 5593 5594
5582 5582 5581 5581 5579 5578 5577 5575 5574 5574 5573 5572 5572 5571 5570 5570 5570 5570 5570 5570 5571 5571 5572 5572 5573 5574 5575 5576 5577 5578 5578 5579 5580 5581 5581 5582 5582 5583 5584 5584 5585 5585 5586 5586